[[{"header":{"parameterUnit":"m.s-1","parameterCategory":2,"la1":30.2992,"la2":30.254,"lo1":-89.0895,"lo2":-89.0443,"dy":0.0025,"dx":0.0025,"nx":19,"ny":19,"refTime":"2026-04-08T03:00:00:Z","depth":"0","parameterNumber":2,"parameterNumberName":"U-component_of_CURRENTS"},"data":[0,0,0,0.0704,0.0704,0.0699,0.0699,0.0683,0.0682,0,0,0,0,0,0,0,0,0,0,0,0.0704,0.0704,0.0704,0.0704,0.0699,0.0699,0.0683,0.0682,0,0,0,0,0,0,0,0,0,0,0,0.0704,0.0704,0.0704,0.0704,0.0699,0.0699,0.0683,0.0688,0,0,0,0,0,0,0,0,0,0,0.0694,0.0692,0.0704,0.0704,0.0704,0.0699,0.0699,0.0688,0.0688,0.0684,0,0.0685,0,0.0686,0.0682,0.0682,0,0,0,0.0699,0.0693,0.0697,0.0704,0.0704,0.0699,0.07,0.0688,0.0687,0.0683,0.0685,0.0684,0.0686,0.0682,0.0682,0.0687,0.0687,0,0,0.07,0.0697,0.0697,0.0696,0.0705,0.07,0.07,0.0687,0.0684,0.0685,0.0684,0.0686,0.0681,0.0681,0.0687,0.0687,0,0,0,0.0704,0.0697,0.0701,0.0697,0.0698,0.07,0.07,0.0685,0.0688,0.0684,0.0686,0.0681,0.0681,0.0687,0.0687,0.0728,0,0,0,0.0704,0.07,0.0701,0.0698,0.0699,0.0692,0.0697,0.0688,0.0687,0.0686,0.0681,0.0681,0.0687,0.0687,0.0726,0.0749,0,0,0,0.0703,0.07,0.0701,0.0698,0.0699,0.0692,0.0694,0.0688,0.0688,0.0682,0.0681,0.0686,0.0687,0.0725,0.0746,0.0801,0,0,0,0.0698,0.0694,0.0701,0.0697,0.0699,0.07,0.0694,0.069,0.0685,0.0681,0.0687,0.0687,0.0725,0.0744,0.0798,0.0875,0.0891,0,0,0.0689,0.0693,0.0692,0.0698,0.0702,0.0701,0.071,0.07,0.069,0.0689,0.0689,0.0727,0.0746,0.08,0.0895,0.0911,0,0,0,0.0687,0.0689,0.069,0.0696,0.0699,0.0718,0.0708,0.0713,0.0721,0.069,0.0723,0.0733,0.0767,0.0808,0.082,0.0878,0.0689,0.0689,0.0689,0.0673,0.0682,0.0687,0.0702,0.0709,0.0727,0.0745,0.0752,0.0733,0.0747,0.0764,0.0828,0.0871,0.0881,0.0939,0.0757,0.0757,0.0757,0.0757,0.0671,0.0676,0.0696,0.0705,0.0732,0.0746,0.0783,0.079,0.0834,0.0798,0.0829,0.0844,0.0897,0.0955,0.076,0.076,0.0759,0.0759,0.0759,0.0666,0.067,0.0681,0.0705,0.0737,0.0767,0.0828,0.0851,0.0873,0.0905,0.0964,0.0964,0.102,0.0928,0.0928,0.0929,0.0929,0.0929,0.0929,0.0653,0.0666,0.0678,0.0705,0.0725,0.0776,0.0857,0.0913,0.1002,0.1022,0.1023,0.1056,0.088,0.0879,0.0935,0.0934,0.0933,0.0932,0.0932,0.0641,0.0649,0.0669,0.0686,0.0736,0.079,0.0879,0.1039,0.1108,0.1171,0.1237,0.1091,0.1092,0.1082,0.1086,0.1192,0.1192,0.1192,0.1192,0.0632,0.0637,0.0663,0.0689,0.0734,0.0797,0.0935,0.109,0.1277,0.1371,0.1376,0.1355,0.1342,0.1354,0.1338,0.1346,0.1515,0.1515,0.1516,0.0627,0.0639,0.0653,0.0681,0.0727,0.0808,0.0933,0.1112,0.1406,0.1531,0.1445,0.1432,0.1397,0.1372,0.1382,0.1355,0.1363,0,0]},{"header":{"parameterUnit":"m.s-1","parameterCategory":2,"la1":30.2992,"la2":30.254,"lo1":-89.0895,"lo2":-89.0443,"dy":0.0025,"dx":0.0025,"nx":19,"ny":19,"refTime":"2026-04-08T03:00:00:Z","depth":"0","parameterNumber":3,"parameterNumberName":"V-component_of_CURRENTS"},"data":[0,0,0,-0.0187,-0.0187,-0.0189,-0.0189,-0.0186,-0.0186,0,0,0,0,0,0,0,0,0,0,0,-0.0185,-0.0185,-0.0187,-0.0187,-0.0189,-0.0189,-0.0186,-0.0186,0,0,0,0,0,0,0,0,0,0,0,-0.0185,-0.0185,-0.0185,-0.0187,-0.0189,-0.0189,-0.0186,-0.0185,0,0,0,0,0,0,0,0,0,0,-0.0184,-0.0182,-0.0185,-0.0185,-0.0187,-0.0189,-0.0189,-0.0185,-0.0185,-0.0184,0,-0.0185,0,-0.0187,-0.0186,-0.0186,0,0,0,-0.0185,-0.0182,-0.0185,-0.0185,-0.0187,-0.0189,-0.0188,-0.0186,-0.0186,-0.0184,-0.0185,-0.0185,-0.0187,-0.0186,-0.0186,-0.0173,-0.0173,0,0,-0.0185,-0.0183,-0.0185,-0.0185,-0.0189,-0.0188,-0.0188,-0.0186,-0.0185,-0.0185,-0.0185,-0.0187,-0.0186,-0.0186,-0.0174,-0.0173,0,0,0,-0.0186,-0.0183,-0.0185,-0.0185,-0.0187,-0.0188,-0.0188,-0.0185,-0.0186,-0.0185,-0.0187,-0.0186,-0.0186,-0.0174,-0.0173,-0.0152,0,0,0,-0.0186,-0.0184,-0.0185,-0.0184,-0.0187,-0.0186,-0.0187,-0.0186,-0.0186,-0.0187,-0.0186,-0.0186,-0.0174,-0.0174,-0.0153,-0.0133,0,0,0,-0.0184,-0.0184,-0.0185,-0.0184,-0.0187,-0.0187,-0.0188,-0.0186,-0.0187,-0.0186,-0.0186,-0.0174,-0.0174,-0.0154,-0.0135,-0.0107,0,0,0,-0.0182,-0.0177,-0.0185,-0.0178,-0.0187,-0.0177,-0.0188,-0.0182,-0.018,-0.0186,-0.0174,-0.0174,-0.0154,-0.0136,-0.0108,-0.0037,-0.0025,0,0,-0.0172,-0.0175,-0.0171,-0.0178,-0.0165,-0.0177,-0.0161,-0.0165,-0.0175,-0.0174,-0.0174,-0.0153,-0.0135,-0.0107,-0.002,-0.0009,0,0,0,-0.0166,-0.0161,-0.0159,-0.0154,-0.0153,-0.0143,-0.0151,-0.0154,-0.0155,-0.0173,-0.0153,-0.0142,-0.0125,-0.0085,-0.0076,-0.0116,-0.0172,-0.0172,-0.0172,-0.0142,-0.0143,-0.0129,-0.0127,-0.012,-0.012,-0.0112,-0.0118,-0.0137,-0.0135,-0.0125,-0.0089,-0.0047,-0.0039,-0.0081,-0.0132,-0.0132,-0.0131,-0.0131,-0.0117,-0.0105,-0.0103,-0.009,-0.0084,-0.0073,-0.0072,-0.0083,-0.0076,-0.0103,-0.0088,-0.0065,-0.0028,-0.0076,-0.013,-0.013,-0.013,-0.0131,-0.0131,-0.0096,-0.0089,-0.0086,-0.0064,-0.0043,-0.004,0.0,-0.0023,-0.0046,-0.0036,0.001,0.001,-0.0031,-0.003,-0.003,-0.003,-0.003,-0.003,-0.003,-0.0075,-0.007,-0.0051,-0.0033,-0.0012,0.0022,0.004,0.0058,0.0066,0.005,0.0051,-0.0016,-0.0058,-0.006,-0.0026,-0.0027,-0.0027,-0.0028,-0.0028,-0.0046,-0.0048,-0.0016,0.0004,0.006,0.0138,0.0146,0.0209,0.0203,0.0224,0.011,0.01,0.0104,0.0097,0.0099,0.0172,0.0172,0.0172,0.0172,-0.0025,-0.0025,0.0022,0.0065,0.0131,0.0193,0.0335,0.038,0.0301,0.0249,0.0167,0.0146,0.014,0.0143,0.0135,0.0136,0.0217,0.0217,0.0217,-0.0001,0.0008,0.0049,0.0085,0.0162,0.0275,0.044,0.0552,0.0393,0.0209,0.0096,0.0094,0.005,0.0043,0.0036,0.0029,0.0026,0,0]}],[{"header":{"parameterUnit":"m.s-1","parameterCategory":2,"la1":30.2992,"la2":30.254,"lo1":-89.0895,"lo2":-89.0443,"dy":0.0025,"dx":0.0025,"nx":19,"ny":19,"refTime":"2026-04-08T03:00:00:Z","depth":"2","parameterNumber":2,"parameterNumberName":"U-component_of_CURRENTS"},"data":[0,0,0,0.0886,0.0886,0.0883,0.0883,0.0879,0.0879,0,0,0,0,0,0,0,0,0,0,0,0.0885,0.0885,0.0886,0.0886,0.0883,0.0883,0.0879,0.0879,0,0,0,0,0,0,0,0,0,0,0,0.0884,0.0885,0.0885,0.0886,0.0883,0.0883,0.0879,0.088,0,0,0,0,0,0,0,0,0,0,0.0883,0.0879,0.0885,0.0885,0.0886,0.0883,0.0883,0.088,0.088,0.0881,0,0.0881,0,0.0883,0.0879,0.0879,0,0,0,0.0882,0.0879,0.0883,0.0885,0.0886,0.0883,0.0883,0.088,0.088,0.0881,0.0881,0.0881,0.0883,0.0879,0.0879,0.0894,0.0894,0,0,0.0883,0.0879,0.0883,0.0883,0.0886,0.0884,0.0883,0.088,0.0878,0.0881,0.0881,0.0883,0.0879,0.0879,0.0894,0.0894,0,0,0,0.0885,0.0879,0.0883,0.0883,0.0884,0.0884,0.0883,0.0877,0.088,0.0881,0.0883,0.0879,0.0879,0.0894,0.0894,0.0924,0,0,0,0.0885,0.0881,0.0883,0.088,0.0885,0.088,0.0881,0.088,0.088,0.0883,0.0879,0.0879,0.0893,0.0894,0.0923,0.094,0,0,0,0.0884,0.0881,0.0882,0.088,0.0882,0.088,0.0883,0.088,0.0881,0.0879,0.0879,0.0893,0.0894,0.0922,0.0938,0.0991,0,0,0,0.0879,0.0876,0.0882,0.088,0.0882,0.0886,0.0883,0.0881,0.0879,0.0879,0.0893,0.0894,0.0921,0.0937,0.0989,0.1051,0.1065,0,0,0.0872,0.0875,0.0875,0.088,0.0886,0.0886,0.0898,0.0892,0.0887,0.0893,0.0894,0.0923,0.0938,0.0991,0.1073,0.1087,0,0,0,0.0871,0.0872,0.0874,0.088,0.0886,0.0905,0.0899,0.0906,0.0916,0.0888,0.0923,0.0931,0.0964,0.0997,0.1007,0.0896,0.0896,0.0896,0.0896,0.0854,0.0865,0.087,0.0886,0.0894,0.0915,0.0933,0.0943,0.0928,0.0941,0.0955,0.1014,0.1049,0.1057,0.0952,0.0952,0.0952,0.0952,0.0952,0.085,0.0854,0.0875,0.0883,0.0911,0.0925,0.0967,0.0974,0.1017,0.0985,0.1016,0.1025,0.1071,0.0954,0.0954,0.0954,0.0953,0.0953,0.0953,0.084,0.0844,0.0854,0.0875,0.0905,0.0937,0.0995,0.1021,0.1047,0.1076,0.113,0.113,0.1048,0.1099,0.1099,0.1099,0.1099,0.11,0.11,0.0822,0.0834,0.0842,0.0868,0.0885,0.0932,0.1014,0.1069,0.1156,0.1176,0.1177,0.1064,0.1059,0.1057,0.1105,0.1104,0.1103,0.1103,0.1102,0.0805,0.0812,0.0826,0.084,0.0885,0.0933,0.1022,0.1175,0.1246,0.1306,0.1243,0.1238,0.1242,0.1233,0.1235,0.1327,0.1327,0.1327,0.1327,0.0791,0.0796,0.0815,0.0836,0.0876,0.0934,0.1057,0.1184,0.1297,0.1332,0.1331,0.1294,0.1287,0.1289,0.1279,0.128,0.1383,0.1383,0.1383,0.0784,0.0794,0.0802,0.0826,0.0866,0.0939,0.1041,0.1138,0.1275,0.1378,0.1271,0.1344,0.1287,0.1275,0.1273,0.126,0.1259,0,0]},{"header":{"parameterUnit":"m.s-1","parameterCategory":2,"la1":30.2992,"la2":30.254,"lo1":-89.0895,"lo2":-89.0443,"dy":0.0025,"dx":0.0025,"nx":19,"ny":19,"refTime":"2026-04-08T03:00:00:Z","depth":"2","parameterNumber":3,"parameterNumberName":"V-component_of_CURRENTS"},"data":[0,0,0,-0.0197,-0.0197,-0.0202,-0.0202,-0.0199,-0.0199,0,0,0,0,0,0,0,0,0,0,0,-0.0193,-0.0193,-0.0197,-0.0197,-0.0202,-0.0202,-0.0199,-0.0199,0,0,0,0,0,0,0,0,0,0,0,-0.0193,-0.0193,-0.0193,-0.0197,-0.0202,-0.0202,-0.0199,-0.0197,0,0,0,0,0,0,0,0,0,0,-0.0193,-0.0191,-0.0193,-0.0193,-0.0197,-0.0202,-0.0202,-0.0197,-0.0197,-0.0194,0,-0.0196,0,-0.0199,-0.0199,-0.0199,0,0,0,-0.0195,-0.019,-0.0194,-0.0194,-0.0197,-0.0202,-0.0199,-0.0197,-0.0197,-0.0195,-0.0196,-0.0196,-0.0199,-0.0199,-0.0199,-0.0182,-0.0182,0,0,-0.0194,-0.0192,-0.0194,-0.0194,-0.02,-0.0199,-0.0199,-0.0197,-0.0196,-0.0196,-0.0196,-0.0199,-0.0199,-0.0199,-0.0183,-0.0182,0,0,0,-0.0195,-0.0192,-0.0195,-0.0194,-0.0197,-0.0199,-0.02,-0.0196,-0.0198,-0.0196,-0.0199,-0.0199,-0.0199,-0.0183,-0.0182,-0.0161,0,0,0,-0.0195,-0.0192,-0.0195,-0.0193,-0.0197,-0.0198,-0.0199,-0.0199,-0.0198,-0.0199,-0.0199,-0.0199,-0.0183,-0.0183,-0.0162,-0.0142,0,0,0,-0.0193,-0.0192,-0.0194,-0.0193,-0.0197,-0.0198,-0.02,-0.0199,-0.02,-0.0199,-0.0199,-0.0183,-0.0183,-0.0163,-0.0143,-0.0115,0,0,0,-0.0189,-0.0185,-0.0194,-0.0189,-0.0197,-0.0189,-0.02,-0.0195,-0.0193,-0.0199,-0.0183,-0.0182,-0.0163,-0.0145,-0.0117,-0.0052,-0.0041,0,0,-0.0181,-0.0184,-0.0181,-0.0188,-0.0176,-0.0188,-0.0171,-0.0176,-0.0186,-0.0183,-0.0183,-0.0161,-0.0144,-0.0116,-0.0032,-0.002,0,0,0,-0.0176,-0.0171,-0.017,-0.0165,-0.0165,-0.0153,-0.0162,-0.0164,-0.0163,-0.0184,-0.016,-0.0149,-0.0132,-0.0097,-0.0088,-0.0181,-0.0181,-0.0181,-0.0181,-0.0153,-0.0154,-0.0141,-0.0138,-0.0131,-0.0129,-0.0121,-0.0124,-0.0144,-0.0141,-0.0131,-0.0093,-0.0055,-0.0048,-0.0136,-0.0136,-0.0136,-0.0136,-0.0136,-0.0129,-0.0118,-0.0114,-0.0102,-0.0094,-0.0081,-0.0076,-0.0088,-0.0078,-0.0106,-0.0091,-0.0075,-0.0037,-0.0134,-0.0135,-0.0135,-0.0135,-0.0135,-0.0135,-0.0109,-0.0103,-0.0099,-0.0077,-0.0053,-0.0048,-0.0006,-0.0026,-0.0048,-0.0038,0.0002,0.0003,-0.0071,-0.0034,-0.0033,-0.0033,-0.0033,-0.0033,-0.0033,-0.009,-0.0084,-0.0066,-0.0046,-0.0024,0.0011,0.0032,0.0051,0.0059,0.0043,0.0043,-0.0058,-0.0062,-0.0065,-0.0029,-0.003,-0.003,-0.0031,-0.0031,-0.0064,-0.0065,-0.0034,-0.0013,0.0043,0.0119,0.0132,0.0193,0.019,0.0208,0.0093,0.0089,0.0093,0.0086,0.0087,0.0159,0.0159,0.0159,0.0159,-0.0045,-0.0045,0.0001,0.0044,0.011,0.0171,0.0301,0.0334,0.0289,0.0244,0.024,0.0225,0.0216,0.0225,0.0215,0.0217,0.0323,0.0323,0.0323,-0.0024,-0.0014,0.0025,0.0062,0.014,0.0247,0.0392,0.0449,0.037,0.0327,0.0236,0.0177,0.0143,0.0133,0.0134,0.0123,0.0122,0,0]}],[{"header":{"parameterUnit":"m.s-1","parameterCategory":2,"la1":30.2992,"la2":30.254,"lo1":-89.0895,"lo2":-89.0443,"dy":0.0025,"dx":0.0025,"nx":19,"ny":19,"refTime":"2026-04-08T03:00:00:Z","depth":"4","parameterNumber":2,"parameterNumberName":"U-component_of_CURRENTS"},"data":[0,0,0,0.0772,0.0773,0.0846,0.0846,0.092,0.092,0,0,0,0,0,0,0,0,0,0,0,0.0752,0.0753,0.0772,0.0774,0.0846,0.0846,0.0919,0.092,0,0,0,0,0,0,0,0,0,0,0,0.0752,0.0752,0.0753,0.0774,0.0845,0.0846,0.0919,0.087,0,0,0,0,0,0,0,0,0,0,0.0802,0.0788,0.0752,0.0753,0.0774,0.0845,0.0846,0.0868,0.0873,0.0881,0,0.0898,0,0.0908,0.0924,0.0925,0,0,0,0.0775,0.0783,0.08,0.0753,0.0775,0.0845,0.0813,0.0871,0.0877,0.0888,0.0899,0.0902,0.0909,0.0925,0.0925,0.0997,0.0998,0,0,0.0771,0.0766,0.0796,0.0804,0.0801,0.0811,0.0816,0.0875,0.0885,0.0899,0.0904,0.0911,0.0925,0.0926,0.0997,0.0997,0,0,0,0.0759,0.0764,0.078,0.0801,0.0814,0.0813,0.0818,0.0882,0.0888,0.0905,0.0911,0.0926,0.0926,0.0997,0.0997,0.0997,0,0,0,0.0756,0.0756,0.0778,0.0776,0.0814,0.0852,0.0825,0.0884,0.089,0.0911,0.0926,0.0927,0.0996,0.0997,0.0996,0.1005,0,0,0,0.0747,0.0755,0.0765,0.0776,0.0805,0.0851,0.086,0.0885,0.0894,0.0925,0.0927,0.0996,0.0997,0.0996,0.1004,0.1039,0,0,0,0.0737,0.0752,0.0765,0.0786,0.0805,0.084,0.086,0.0899,0.0927,0.0926,0.0996,0.0997,0.0996,0.1003,0.1038,0.0936,0,0,0,0.0744,0.0753,0.0763,0.0777,0.0805,0.083,0.0867,0.0916,0.0939,0.0975,0.0977,0.0997,0.1004,0.1039,0.0979,0,0,0,0,0.0758,0.0768,0.0778,0.0802,0.0828,0.0864,0.0904,0.0927,0.0978,0.0959,0.1011,0.1016,0.1038,0.0976,0.1001,0.1,0.1,0.1,0.1,0.0759,0.0773,0.0793,0.0818,0.0844,0.0894,0.0927,0.0969,0.0983,0.1012,0.1027,0.1068,0.1002,0.1034,0.1034,0.1034,0.1034,0.1034,0.1034,0.0765,0.0772,0.0803,0.0829,0.0867,0.0904,0.0962,0.0987,0.1047,0.1043,0.1064,0.0992,0.1035,0.1035,0.1035,0.1035,0.1035,0.1035,0.1035,0.0754,0.0758,0.0786,0.0825,0.0872,0.092,0.0972,0.1019,0.1061,0.1084,0.1043,0.1084,0.1074,0.1105,0.1105,0.1106,0.1106,0.1106,0.1106,0.0726,0.0752,0.0775,0.0821,0.085,0.0903,0.0988,0.1027,0.108,0.1048,0.11,0.1093,0.1091,0.1079,0.1109,0.1108,0.1108,0.1108,0.1108,0.07,0.072,0.0748,0.0776,0.0834,0.086,0.0952,0.1005,0.1046,0.1049,0.1031,0.1034,0.1032,0.1032,0.1018,0.1031,0.103,0.1029,0,0.0679,0.069,0.0726,0.0755,0.0781,0.0832,0.0858,0.0918,0.0971,0.0936,0.105,0.1027,0.1028,0.1024,0.1022,0.1004,0,0,0,0.0663,0.0679,0.0693,0.073,0.075,0.079,0.0859,0.0861,0.095,0.0971,0.0999,0.1007,0.1078,0.1118,0.1123,0.112,0.1103,0,0]},{"header":{"parameterUnit":"m.s-1","parameterCategory":2,"la1":30.2992,"la2":30.254,"lo1":-89.0895,"lo2":-89.0443,"dy":0.0025,"dx":0.0025,"nx":19,"ny":19,"refTime":"2026-04-08T03:00:00:Z","depth":"4","parameterNumber":3,"parameterNumberName":"V-component_of_CURRENTS"},"data":[0,0,0,-0.0025,-0.0026,-0.0053,-0.0053,-0.0069,-0.0069,0,0,0,0,0,0,0,0,0,0,0,-0.0016,-0.0016,-0.0025,-0.0026,-0.0053,-0.0053,-0.0069,-0.0069,0,0,0,0,0,0,0,0,0,0,0,-0.0015,-0.0016,-0.0016,-0.0026,-0.0053,-0.0053,-0.0069,-0.0052,0,0,0,0,0,0,0,0,0,0,-0.0028,-0.002,-0.0016,-0.0016,-0.0026,-0.0053,-0.0053,-0.0052,-0.0053,-0.0051,0,-0.0058,0,-0.0064,-0.0069,-0.0069,0,0,0,-0.0024,-0.0019,-0.0029,-0.0016,-0.0026,-0.0053,-0.004,-0.0053,-0.0055,-0.0053,-0.0058,-0.0059,-0.0064,-0.0069,-0.0069,-0.0077,-0.0077,0,0,-0.0023,-0.0017,-0.0028,-0.003,-0.0036,-0.004,-0.0041,-0.0054,-0.0055,-0.0058,-0.0059,-0.0064,-0.0069,-0.007,-0.0077,-0.0077,0,0,0,-0.0019,-0.0016,-0.0026,-0.003,-0.0036,-0.004,-0.0042,-0.0054,-0.0059,-0.0059,-0.0064,-0.007,-0.007,-0.0077,-0.0077,-0.0052,0,0,0,-0.0018,-0.0014,-0.0026,-0.0022,-0.0036,-0.0048,-0.0042,-0.0058,-0.006,-0.0064,-0.007,-0.007,-0.0077,-0.0077,-0.0052,-0.0035,0,0,0,-0.0014,-0.0013,-0.0018,-0.0021,-0.0034,-0.0048,-0.0053,-0.0058,-0.0063,-0.0069,-0.007,-0.0077,-0.0077,-0.0053,-0.0036,-0.0012,0,0,0,-0.0004,-0.0012,-0.0018,-0.0024,-0.0034,-0.0038,-0.0053,-0.0064,-0.007,-0.007,-0.0077,-0.0077,-0.0053,-0.0037,-0.0013,0.0012,0,0,0,-0.0009,-0.0013,-0.0015,-0.0021,-0.0022,-0.0034,-0.0028,-0.0049,-0.0068,-0.0071,-0.0072,-0.0052,-0.0037,-0.0013,0.001,0,0,0,0,-0.0012,-0.0016,-0.0016,-0.0019,-0.0022,-0.0016,-0.0034,-0.0037,-0.0053,-0.0073,-0.006,-0.0051,-0.0036,-0.0025,-0.0077,-0.0077,-0.0077,-0.0077,-0.0077,-0.0019,-0.0016,-0.0013,-0.001,-0.0006,-0.0007,-0.0001,-0.0011,-0.0034,-0.0041,-0.0036,-0.0008,0.0004,-0.0046,-0.0046,-0.0046,-0.0046,-0.0046,-0.0046,-0.0021,-0.0016,-0.0006,-0.0004,0.0009,0.0016,0.0028,0.0015,0.002,-0.0011,0.0001,-0.0007,-0.0043,-0.0044,-0.0044,-0.0045,-0.0045,-0.0045,-0.0045,-0.0022,-0.0016,-0.0016,0.0001,0.0019,0.003,0.0068,0.0057,0.0042,0.0051,0.0056,0.0014,0.002,0.0048,0.0049,0.0049,0.0049,0.0049,0.0049,-0.0019,-0.0016,-0.0005,0.0011,0.0028,0.0059,0.0087,0.0106,0.009,0.0092,0.0052,0.0024,0.0021,0.0025,0.0052,0.0052,0.0051,0.0051,0.0051,-0.0012,-0.0011,0.0008,0.0025,0.0074,0.0106,0.0129,0.0163,0.0183,0.0184,0.012,0.0116,0.0113,0.0108,0.0114,0.0169,0.017,0.017,0,-0.0004,-0.0003,0.003,0.0066,0.0119,0.0141,0.0197,0.0216,0.0194,0.0187,0.017,0.0097,0.0094,0.0087,0.0084,0.009,0,0,0,0.0008,0.0016,0.0044,0.0077,0.0139,0.0191,0.0216,0.0226,0.019,0.0223,0.0182,0.0179,0.0117,0.006,0.0045,0.0042,0.0047,0,0]}]]